Tracking 17140 objects as of 1-July-2015
HD Live streaming from Space Station

FENGYUN 2B AKM

Track FENGYUN 2B AKM now!
FENGYUN 2B AKM is classified as:


NORAD ID: 26460
Int'l Code: 2000-032C
Perigee: 35,736.5 km
Apogee: 35,907.4 km
Inclination: 11.5 °
Period: 1,437.5 minutes
Semi major axis: 42192 km
RCS: 7.9432 m2 (large)
Launch date: June 25, 2000
Source: People's Republic of China (PRC)

Note: This is a ROCKET BODY
Your satellite tracking list
Your tracking list is empty





NASA's NSSDC Master Catalog

Two Line Element Set (TLE):
1 26460U 00032C   15181.75873309  .00000105  00000-0  00000+0 0  9996
2 26460 011.5309 040.6692 0020249 294.7199 056.3185 01.00171249 82052

Source of the keplerian elements: AFSPC

N2YO: 243